Location: Acheville
(50.3840°N, 2.8827°E)
Time: 19:22:31
(UTC+00:00)

Cosmos 1892 - Pass Details

Date: 24 October 2021
Orbit: 501 x 522 km, 82.5° (Epoch: 07 December)

Event Time Altitude Azimuth Distance (km) Brightness Sun altitude
Rises 18:44:50 0° 346° (NNW) 2,621 6.5 -20.7°
Reaches altitude 10° 18:46:59 10° 343° (NNW) 1,728 5.6 -21.1°
Maximum altitude 18:50:42 59° 264° (W) 588 3.2 -21.6°
Enters shadow 18:53:45 14° 186° (S) 1,451 4.9 -22.1°
